Location: *
(45.5667°S, 177.5167°W)
Time: 22:45:40
(UTC+00:00)

Meteor 2-3 Rocket - Pass Details

Date: 29 May 2022
Orbit: 841 x 886 km, 81.2° (Epoch: 24 June)

Event Time Altitude Azimuth Distance (km) Brightness Sun altitude
Rises 05:15:02 0° 356° (N) 3,395 7.2 -9.9°
Reaches altitude 10° 05:17:26 10° 357° (N) 2,471 6.5 -10.3°
Maximum altitude 05:23:02 78° 82° (E) 884 3.7 -11.2°
Drops below altitude 10° 05:28:46 10° 167° (SSE) 2,526 5.9 -12.1°
Sets 05:31:13 0° 167° (SSE) 3,476 6.6 -12.5°
